CW0198 Weather Reports


Display with metric or nautical units.
time (UTC)temp
F
wind
direction
speed
MPH
gust
MPH
rain 1hr
in
rain 24hr
in
rain mn
in
humidity
%
barometer
mb
20260510220011 84 209 4.0 7.0 0.00 0.00 0.00 42 1013.0
20260510214532 84 275 1.0 5.0 0.00 0.00 0.00 43 1012.9
20260510213116 85 281 2.0 5.0 0.00 0.00 0.00 43 1012.9
20260510211533 84 147 3.0 7.0 0.00 0.00 0.00 44 1012.8
20260510210047 84 309 1.0 7.0 0.00 0.00 0.00 45 1012.8
20260510204521 85 300 1.0 6.0 0.00 0.00 0.00 47 1012.9
20260510203036 86 341 1.0 4.0 0.00 0.00 0.00 44 1013.0
20260510201603 83 115 0.0 3.0 0.00 0.00 0.00 46 1013.0
20260510201502 83 121 0.0 3.0 0.00 0.00 0.00 47 1013.0
20260510200022 84 290 2.0 6.0 0.00 0.00 0.00 49 1013.0
20260510194604 85 319 3.0 8.0 0.00 0.00 0.00 42 1013.0
20260510193010 84 226 2.0 6.0 0.00 0.00 0.00 49 1013.3
20260510191542 84 274 2.0 7.0 0.00 0.00 0.00 48 1013.4
20260510190108 83 259 1.0 4.0 0.00 0.00 0.00 50 1013.7
20260510184528 82 234 4.0 8.0 0.00 0.00 0.00 50 1014.0
20260510183047 82 172 2.0 7.0 0.00 0.00 0.00 50 1013.9
20260510181512 83 20 0.0 3.0 0.00 0.00 0.00 53 1014.0
20260510180046 83 345 3.0 6.0 0.00 0.00 0.00 50 1014.1
20260510174618 82 224 1.0 7.0 0.00 0.00 0.00 55 1014.0
20260510173025 82 293 1.0 5.0 0.00 0.00 0.00 53 1014.1
20260510171616 81 290 3.0 7.0 0.00 0.00 0.00 53 1014.1
20260510170014 81 1 1.0 4.0 0.00 0.00 0.00 58 1014.1
20260510164535 82 221 0.0 4.0 0.00 0.00 0.00 57 1014.2
20260510163109 83 106 0.0 3.0 0.00 0.00 0.00 56 1014.4
20260510161512 81 33 0.0 4.0 0.00 0.00 0.00 58 1014.5
20260510160039 80 314 0.0 5.0 0.00 0.00 0.00 61 1014.5
20260510154600 78 334 2.0 7.0 0.00 0.00 0.00 63 1014.7
20260510153030 78 291 1.0 5.0 0.00 0.00 0.00 68 1014.7
20260510151548 77 294 1.0 6.0 0.00 0.00 0.00 69 1014.6
20260510150017 77 290 1.0 3.0 0.00 0.00 0.00 71 1014.7
20260510144556 76 13 2.0 4.0 0.00 0.00 0.00 73 1014.7
20260510143059 75 265 0.0 3.0 0.00 0.00 0.00 74 1014.5
20260510141526 74 155 0.0 3.0 0.00 0.00 0.00 76 1014.6
20260510140038 73 287 1.0 3.0 0.00 0.00 0.00 77 1014.8
20260510134558 72 41 0.0 4.0 0.00 0.00 0.00 78 1014.6
20260510133018 72 291 1.0 4.0 0.00 0.00 0.00 81 1014.6
20260510131544 71 170 0.0 3.0 0.00 0.00 0.00 84 1014.6
20260510130054 70 163 0.0 4.0 0.00 0.00 0.00 86 1014.2
20260510124518 68 293 0.0 3.0 0.00 0.00 0.00 90 1014.3
20260510123035 66 290 0.0 3.0 0.00 0.00 0.00 92 1014.2
20260510121549 64 303 1.0 3.0 0.00 0.00 0.00 97 1014.2
20260510120003 62 294 0.0 1.0 0.00 0.00 0.00 98 1014.2
20260510114526 61 216 0.0 0.0 0.00 0.00 0.00 98 1013.8
20260510113054 61 215 0.0 0.0 0.00 0.00 0.00 99 1013.6
20260510111512 60 215 0.0 0.0 0.00 0.00 0.00 99 1013.5
20260510110101 60 215 0.0 0.0 0.00 0.00 0.00 99 1013.4
20260510104601 60 215 0.0 0.0 0.00 0.00 0.00 98 1013.2
20260510103023 60 215 0.0 0.0 0.00 0.00 0.00 98 1012.8
20260510101557 60 217 0.0 0.0 0.00 0.00 0.00 99 1012.7
20260510100013 60 210 0.0 0.0 0.00 0.00 0.00 98 1012.6
20260510094540 59 210 0.0 0.0 0.00 0.00 0.00 98 1012.2
20260510093059 60 210 0.0 0.0 0.00 0.00 0.00 99 1012.2
20260510093001 60 210 0.0 0.0 0.00 0.00 0.00 99 1012.2
20260510091517 59 206 0.0 1.0 0.00 0.00 0.00 99 1012.1
20260510090049 59 330 0.0 0.0 0.00 0.00 0.00 98 1011.9
20260510084509 59 330 0.0 0.0 0.00 0.00 0.00 98 1011.7
20260510083038 58 330 0.0 0.0 0.00 0.00 0.00 98 1011.7
20260510081556 58 330 0.0 0.0 0.00 0.00 0.00 98 1011.6
20260510081501 58 330 0.0 0.0 0.00 0.00 0.00 98 1011.5
20260510080036 58 330 0.0 0.0 0.00 0.00 0.00 98 1011.7
20260510074552 58 330 0.0 0.0 0.00 0.00 0.00 98 1011.4
20260510073007 59 330 0.0 0.0 0.00 0.00 0.00 98 1011.5
20260510071530 59 330 0.0 0.0 0.00 0.00 0.00 98 1011.4
20260510070056 59 330 0.0 0.0 0.00 0.00 0.00 98 1011.5
20260510064519 59 330 0.0 0.0 0.00 0.00 0.00 98 1011.5
20260510063047 59 330 0.0 0.0 0.00 0.00 0.00 98 1011.3
20260510061511 59 330 0.0 0.0 0.00 0.00 0.00 98 1011.3
20260510060041 60 330 0.0 0.0 0.00 0.00 0.00 98 1011.4
20260510054501 60 330 0.0 0.0 0.00 0.00 0.00 98 1011.7
20260510053019 60 330 0.0 0.0 0.00 0.00 0.00 98 1011.9
20260510051549 60 330 0.0 0.0 0.00 0.00 0.00 98 1012.0
20260510050108 60 330 0.0 0.0 0.00 0.00 0.00 98 1012.0
20260510050007 60 330 0.0 0.0 0.00 0.00 0.00 98 1011.9
20260510044510 61 330 0.0 0.0 0.00 0.00 0.00 98 1012.0
20260510043037 62 330 0.0 0.0 0.00 0.00 0.00 98 1012.0
20260510041555 62 330 0.0 0.0 0.00 0.00 0.00 98 1011.9
20260510040021 61 330 0.0 0.0 0.00 0.00 0.00 98 1011.9
20260510034553 61 330 0.0 0.0 0.00 0.00 0.00 97 1011.8
20260510033007 61 330 0.0 0.0 0.00 0.00 0.00 97 1011.7
20260510031537 61 330 0.0 0.0 0.00 0.00 0.00 97 1011.6
20260510030100 61 330 0.0 0.0 0.00 0.00 0.00 97 1011.5
20260510024523 62 330 0.0 0.0 0.00 0.00 0.00 96 1011.4
20260510023047 62 330 0.0 0.0 0.00 0.00 0.00 97 1011.4
20260510021536 62 330 0.0 0.0 0.00 0.00 0.00 96 1011.2
20260510020033 62 330 0.0 0.0 0.00 0.00 0.00 96 1011.3
20260510014508 63 330 0.0 0.0 0.00 0.00 0.00 94 1011.1
20260510013025 63 330 0.0 0.0 0.00 0.00 0.00 93 1010.9
20260510011551 64 330 0.0 0.0 0.00 0.00 0.00 93 1010.7
20260510010032 65 330 0.0 0.0 0.00 0.00 0.00 92 1010.6
20260510004544 66 330 0.0 0.0 0.00 0.00 0.00 91 1010.4
20260510003015 67 330 0.0 0.0 0.00 0.00 0.00 89 1010.2
20260510001539 68 330 0.0 0.0 0.00 0.00 0.00 87 1010.4
20260510000006 69 330 0.0 0.0 0.00 0.00 0.00 86 1010.3
20260509234534 70 266 0.0 2.0 0.00 0.00 0.00 84 1010.2
20260509233052 72 233 0.0 0.0 0.00 0.00 0.00 80 1009.7
20260509231518 72 233 0.0 1.0 0.00 0.00 0.00 79 1009.7
20260509230047 73 252 0.0 2.0 0.00 0.00 0.00 77 1009.7
20260509224510 73 241 0.0 0.0 0.00 0.00 0.00 78 1009.4
20260509223040 73 288 0.0 2.0 0.00 0.00 0.00 77 1009.6
20260509221514 73 283 0.0 4.0 0.00 0.00 0.00 79 1009.6